Location: Alexandria
(38.8050°N, 77.0470°W)
Time: 13:40:10
(UTC-05:00)

Tiangong 2 - Pass Details

Date: 09 February 2018
Orbit: 384 x 388 km, 42.8° (Epoch: 22 February)

Event Time Altitude Azimuth Distance (km) Brightness Sun altitude
Rises 19:28:05 0° 234° (SW) 2,252 5.8 -21.7°
Reaches altitude 10° 19:30:11 10° 229° (SW) 1,400 4.6 -22.1°
Enters shadow 19:31:57 28° 212° (SSW) 745 2.8 -22.4°
